Flag for Canada Weather past 2 weeks in Quesnel, British Columbia, Canada

Now
52 °F

Light rain. Fog.


Feels Like: 52 °F
Forecast: 50 / 67 °F
Wind: No wind

Location: Quesnel Airport

Current Time: Sep 17, 2014 at 11:24:35 PM

Latest Report: Sep 17, 2014 at 10:01 PM


Visibility: 2 mi

Pressure: 29.72 "Hg

Humidity: 100%

Dew point: 52 °F

Location of QuesnelLocation

Historic Weather in Quesnel — Graph

°F

Quesnel temperature yesterday

Maximum temperature yesterday: 77 °F (at 4:00 PM)
Minimum temperature yesterday: 37 °F (at 6:55 AM)
Average temperature yesterday: 52 °F

Past Weeks' High & Low Weather Summary

 TemperatureHumidityPressure
High81 °F (Sep 6, 5:00 PM)100% (Sep 2, 10:00 PM)30.58 "Hg (Sep 2, 10:00 PM)
Low25 °F (Sep 11, 4:00 AM)26% (Sep 10, 6:00 PM)29.72 "Hg (Sep 17, 8:00 PM)
Average50 °F78%30.12 "Hg
* Reported Sep 2 10:00 PM — Sep 17 10:01 PM, Quesnel, Weather by CustomWeather, © 2014

Note: Actual official high and low records may vary slightly from our data, if they occured in-between our weather recording intervals... More about our weather records

Advertising

Quesnel weather history for previous 24 hours

 ConditionsComfort  
Time TempWeatherWind HumidityBarometerVisibility
10:01 PM
Sep 17
52 °FLight rain. Fog.No wind100%29.72 "Hg2 mi
9:00 PM52 °FFog.2 mph100%29.72 "Hg4 mi
8:00 PM54 °FFog.No wind94%29.72 "Hg4 mi
7:00 PM54 °FFog.5 mph94%29.73 "Hg4 mi
6:00 PM55 °FFog.2 mph88%29.75 "Hg4 mi
5:00 PM55 °FLight rain. Fog.3 mph88%29.76 "Hg5 mi
4:00 PM57 °FOvercast.5 mph77%29.78 "Hg5 mi
3:56 PM57 °FOvercast.5 mph77%29.78 "Hg5 mi
3:00 PM55 °FOvercast.No wind77%29.79 "Hg6 mi
2:00 PM55 °FOvercast.2 mph77%29.80 "Hg6 mi
1:00 PM55 °FHaze.2 mph72%29.81 "Hg6 mi
12:00 PM54 °FHaze.2 mph77%29.82 "Hg5 mi
11:00 AM52 °FPassing clouds.3 mph82%29.83 "Hg9 mi
10:00 AM50 °FPassing clouds.No wind88%29.84 "Hg8 mi
9:00 AM46 °FPassing clouds.2 mph100%29.84 "Hg7 mi
8:00 AM46 °FScattered clouds.3 mph100%29.85 "Hg7 mi
7:01 AM45 °FFog.6 mph100%29.83 "Hg6 mi
6:54 AM45 °FFog.No wind100%29.83 "Hg5 mi
6:00 AM43 °FOvercast.3 mph100%29.83 "Hg8 mi
5:00 AM41 °FFog.No wind100%29.82 "Hg0 mi
4:01 AM41 °FLow clouds.No wind100%29.82 "Hg9 mi
3:59 AM41 °FFog.No wind100%29.82 "Hg3 mi
3:01 AM39 °FFog.2 mph100%29.83 "Hg2 mi
2:59 AM39 °FFog.No wind100%29.83 "Hg2 mi
2:00 AM41 °FFog.2 mph100%29.83 "Hg2 mi
1:59 AM41 °FFog.2 mph100%29.83 "Hg2 mi
1:04 AM43 °FFog.No wind100%29.83 "Hg5 mi
12:00 AM45 °FClear.No wind100%29.83 "Hg9 mi
11:00 PM
Sep 16
46 °FClear.No wind100%29.83 "Hg9 mi
Weather by CustomWeather, © 2014

See weather overviewHow to use our weather pages